Location: Cactus School
(34.5700°N, 118.0931°W)
Time: 13:04:40
(UTC-08:00)

OTV 5 (USA 277) - Pass Details

Date: 18 November 2017
Orbit: 404 x 417 km, 43.0° (Epoch: 07 September)

Event Time Altitude Azimuth Distance (km) Brightness Sun altitude
Exits shadow 05:10:01 26° 340° (NNW) 845 ? -16.3°
Maximum altitude 05:11:07 33° 19° (NNE) 703 ? -16.1°
Drops below altitude 10° 05:14:08 10° 86° (E) 1,452 ? -15.5°
Sets 05:16:21 0° 96° (E) 2,309 ? -15.1°
